Погода в Большом Синковце

Россия / Орловская область     52°40′54″N   37°13′27″E
темп.,
°C
ветер,
м/с
пор.,
м/с
влажн.,
%
обл.,
%
осадки,
мм/ч
давл.,
гПа
погр.,
м
9 мая, вс
вс900:00+7зюз71095100 0.0 1004609
03:00+2з91597100 0.6 1008622
06:00+3зсз91797100 1.0 1010862
09:00+4сз9139099 1.1 10131089
12:00+7сз81175100 0.3 10151386
15:00+8сз9116889 0.6 10171644
18:00+8сз611715 0.1 10191567
21:00+5сз411795 0.1 1022265
10 мая, пн
пн1000:00+4сз412825 0.0 1023251
03:00+3ссз513790 0.0 1025260
06:00+3ссз512750 0.0 1027266
09:00+9с610610 0.0 1027938
12:00+12ссв710495 0.0 10271590
15:00+13ссв810495 0.0 10261766
18:00+11ссв711620 0.0 10261236
21:00+8ссв6156794 0.0 1026483
11 мая, вт
вт1100:00+7ссв7166755 0.0 1026538
03:00+7св6157198 0.0 1025498
06:00+7св7158086 0.0 1025449
09:00+11св8127363 0.0 1025546
12:00+11всв7138295 0.0 1025718
15:00+14всв8117691 0.0 1024954
18:00+13в389027 0.2 1025335
21:00+12в2698100 2.6 1024246
12 мая, ср
ср1200:00+10юз2297100 6.4 1024111
03:00+9всв1397100 8.4 1023170
06:00+9ююв2397100 0.7 1022133
09:00+8ююз2495100 6.9 1022267
12:00+13юв357168 0.3 10221157
15:00+14вюв5773100 0.3 1022907
18:00+14всв5974100 0.0 1022719
21:00+12всв41088100 0.1 1020239
13 мая, чт
чт1300:00+11в3994100 0.0 1019212
03:00+10в3797100 0.0 1018159
06:00+11вюв489995 0.0 1017271
09:00+13юв5789100 0.0 1017464
12:00+18юв686296 0.0 10161561
15:00+19ююв6856100 0.0 10161924
18:00+18юв4970100 0.1 1016361
21:00+14юв478318 0.1 1017119